Tracking 29892 objects as of 21-Nov-2024
HD Live streaming from Space Station
objects crossing your sky now

STARLINK-6178

Track STARLINK-6178 now!
10-day predictions
STARLINK-6178 is classified as:


NORAD ID: 56387
Int'l Code: 2023-061P
Perigee: 565.5 km
Apogee: 567.0 km
Inclination: 43.0 °
Period: 95.8 minutes
Semi major axis: 6937 km
RCS: Unknown
Launch date: May 4, 2023
Source: United States (US)
Launch site: AIR FORCE EASTERN TEST RANGE (AFETR)
Your satellite tracking list
Your tracking list is empty




NASA's NSSDC Master Catalog

Two Line Element Set (TLE):
1 56387U 23061P   24325.94595020 -.00000211  00000-0 -56292-6 0  9997
2 56387  43.0037 251.4540 0001120 274.0183  86.0531 15.02531965 85786
Source of the keplerian elements: AFSPC